THOR ABLESTAR DEB, 3125

Orbit data source: Space-Track

THOR ABLESTAR DEB, 3125 is space debris in LEO originally from a launch on Thu, 29 Jun 1961 UTC launched from the Air Force Eastern Test Range (AFETR). Debris objects in space refer to the collection of defunct objects orbiting the Earth. Examples of debris include non-operational satellites, rocket bodies, and fragments generated from explosions, collisions, or faulty payload assembly.

Loading next visibility...
Identifier
3125, 1961-015HY
Orbit
LEO
Country
Flag of USUS
Related business
Manufacturer
Unknown
Mission
Spacecraft
Bus & Motor
Unknown
Mass
Unknown
Launch date (UTC)
1961-06-29 (65 years ago)
Launch vehicle
Unknown
Launch site
Air Force Eastern Test Range (AFETR)
Object type
Payload
Rocket body
Debris
Shape & HBR
Unknown shape, 0.1 m
Radar Cross Section
Small (<0.1 m²)

Expand to show TLE details & history
Last TLE update: 15 hours ago

TLE from 15 hours ago
0 THOR ABLESTAR DEB
1 03125U 61015HY  26110.16680609  .00000404  00000-0  80618-3 0  9994
2 03125  67.5595  16.9832 0298384  90.8619  55.6577 13.27584565139820
Epoch: 2026-04-20T04:00Z
TLE epoch observation values (Epoch: 2026-04-20T04:00:12.046Z)
Latitude
28.12053°
Longitude
-84.01144°
Altitude
1,036.382 km
Speed
7.396 km/s
True Right ascension
12h 17m 11s
True Declination
27° 58' 59"
Sunlit
Object was in full shadow at epoch
Visualization orbit readout
Latitude
Unknown
Longitude
Unknown
Altitude
Unknown
Speed
Unknown
Apparent Right ascension
Unknown
Apparent Declination
Unknown
Sunlit
N/A
Visualization observer readout
Local Sidereal Time
01:32:47
Azimuth
Unknown
Elevation
Unknown
Doppler factor
Unknown
Orbital elements
Apogee altitude
1,379 km
Perigee altitude
929.491 km
Semi-major axis
7,532.382 km
Eccentricity
0.02984
Inclination
67.5595°
RAAN
16.9832°
Arg. of periapsis
90.8619°
True anomaly
58.5403°
Mean anomaly
55.6577°
Eccentric anomaly
57.09301°
Mean motion
3.32005 °/min
Orbital period
108.43 mins
BSTAR
0.00080618
Loading maneuver chart data...
Computing Atmospheric mass density...
Loading historical data...
Loading historical data...
Loading historical data...
Loading historical data...
Loading historical data...
Loading historical data...
Loading historical data...

Documentation

Showing up to 5 results
|